AWE1549 YBCG-YSSY

Flight info

Callsign AWE1549
Flight time 1h 5m
Altitude 30000
Route GOMOL Q16 APAGI H91 IGDAM/N0428F310 H652 BOREE
Aircraft A320/M-SDE3FGHIRWY/LB1

Departure

Time 2026-05-04 01:18
Airport Gold Coast Airport (YBCG)

Arrival

Time 2026-05-04 02:23
Airport Sydney Kingsford Smith International Airport (YSSY)
Time Latitude Longitude Altitude Speed Heading
2026-05-04 00:59 -28.16695 153.51165 29 ft 0 kts 60°
2026-05-04 01:11 -28.16700 153.51155 30 ft 4 kts 59°
2026-05-04 01:11 -28.16714 153.51130 44 ft 4 kts 54°
2026-05-04 01:11 -28.16731 153.51106 31 ft 4 kts 39°
2026-05-04 01:11 -28.16752 153.51094 30 ft 4 kts 345°
2026-05-04 01:12 -28.16758 153.51096 29 ft 0 kts 331°
2026-05-04 01:14 -28.16739 153.51084 29 ft 15 kts 330°
2026-05-04 01:14 -28.16564 153.50973 26 ft 29 kts 330°
2026-05-04 01:15 -28.16493 153.50846 26 ft 17 kts 277°
2026-05-04 01:15 -28.16413 153.50771 27 ft 15 kts 331°
2026-05-04 01:15 -28.16314 153.50708 27 ft 19 kts 330°
2026-05-04 01:15 -28.16175 153.50619 27 ft 27 kts 330°
2026-05-04 01:16 -28.16009 153.50514 29 ft 28 kts 330°
2026-05-04 01:16 -28.15837 153.50406 27 ft 29 kts 331°
2026-05-04 01:16 -28.15662 153.50293 29 ft 29 kts 330°
2026-05-04 01:16 -28.15623 153.50155 28 ft 18 kts 240°
2026-05-04 01:17 -28.15698 153.50100 26 ft 15 kts 152°
2026-05-04 01:17 -28.15992 153.50288 27 ft 84 kts 150°
2026-05-04 01:17 -28.16672 153.50720 29 ft 140 kts 150°
2026-05-04 01:17 -28.17599 153.51315 397 ft 152 kts 152°
2026-05-04 01:18 -28.18505 153.51899 1130 ft 149 kts 149°
2026-05-04 01:18 -28.19405 153.52471 1838 ft 142 kts 150°
2026-05-04 01:18 -28.20294 153.52949 2232 ft 150 kts 156°
2026-05-04 01:18 -28.21342 153.53400 2429 ft 171 kts 157°
2026-05-04 01:19 -28.22541 153.53902 2665 ft 196 kts 156°
2026-05-04 01:19 -28.23897 153.54469 2946 ft 220 kts 158°
2026-05-04 01:19 -28.25486 153.54733 3249 ft 247 kts 189°
2026-05-04 01:19 -28.27066 153.53810 3685 ft 269 kts 224°
2026-05-04 01:20 -28.28242 153.52132 4443 ft 275 kts 237°
2026-05-04 01:20 -28.29222 153.50245 5278 ft 280 kts 241°
2026-05-04 01:20 -28.29969 153.48719 5957 ft 282 kts 241°
2026-05-04 01:21 -28.30361 153.47927 6220 ft 289 kts 240°
2026-05-04 01:21 -28.31382 153.45949 7035 ft 289 kts 238°
2026-05-04 01:21 -28.32464 153.44012 7873 ft 291 kts 237°
2026-05-04 01:21 -28.33591 153.42101 8722 ft 292 kts 236°
2026-05-04 01:22 -28.34754 153.40196 9544 ft 295 kts 235°
2026-05-04 01:22 -28.35943 153.38279 10282 ft 300 kts 236°
2026-05-04 01:22 -28.37191 153.36271 10508 ft 323 kts 236°
2026-05-04 01:22 -28.38527 153.34121 10837 ft 340 kts 236°
2026-05-04 01:23 -28.39898 153.31911 11476 ft 345 kts 236°
2026-05-04 01:23 -28.41286 153.29675 12157 ft 347 kts 236°
2026-05-04 01:23 -28.42679 153.27427 12874 ft 349 kts 237°
2026-05-04 01:23 -28.44081 153.25159 13571 ft 352 kts 237°
2026-05-04 01:24 -28.45489 153.22876 14222 ft 354 kts 237°
2026-05-04 01:24 -28.46911 153.20569 14806 ft 357 kts 238°
2026-05-04 01:24 -28.48321 153.18282 15353 ft 359 kts 238°
2026-05-04 01:24 -28.49759 153.15948 15914 ft 362 kts 238°
2026-05-04 01:25 -28.51208 153.13595 16483 ft 364 kts 238°
2026-05-04 01:25 -28.52671 153.11224 17031 ft 367 kts 238°
2026-05-04 01:25 -28.54143 153.08835 17586 ft 370 kts 238°
2026-05-04 01:25 -28.55625 153.06425 18141 ft 373 kts 239°
2026-05-04 01:26 -28.57116 153.03996 18654 ft 376 kts 239°
2026-05-04 01:26 -28.58614 153.01545 19144 ft 378 kts 239°
2026-05-04 01:26 -28.60119 152.99083 19642 ft 380 kts 239°
2026-05-04 01:26 -28.61634 152.96608 20151 ft 382 kts 239°
2026-05-04 01:27 -28.63158 152.94120 20648 ft 384 kts 239°
2026-05-04 01:27 -28.64690 152.91621 21171 ft 386 kts 239°
2026-05-04 01:27 -28.66232 152.89111 21674 ft 388 kts 239°
2026-05-04 01:27 -28.67785 152.86586 22187 ft 390 kts 239°
2026-05-04 01:28 -28.69345 152.84047 22672 ft 393 kts 239°
2026-05-04 01:28 -28.70910 152.81491 23163 ft 394 kts 239°
2026-05-04 01:28 -28.72482 152.78917 23634 ft 397 kts 240°
2026-05-04 01:28 -28.74060 152.76327 24011 ft 399 kts 240°
2026-05-04 01:29 -28.75645 152.73724 24405 ft 400 kts 240°
2026-05-04 01:29 -28.77233 152.71117 24807 ft 401 kts 240°
2026-05-04 01:29 -28.78806 152.68534 25196 ft 402 kts 240°
2026-05-04 01:29 -28.80401 152.65910 25581 ft 403 kts 240°
2026-05-04 01:30 -28.82005 152.63277 25961 ft 405 kts 240°
2026-05-04 01:30 -28.83739 152.60731 26343 ft 412 kts 232°
2026-05-04 01:30 -28.85917 152.58555 26702 ft 422 kts 221°
2026-05-04 01:30 -28.88516 152.56891 27053 ft 435 kts 210°
2026-05-04 01:31 -28.91346 152.55617 27392 ft 439 kts 208°
2026-05-04 01:31 -28.94189 152.54345 27705 ft 441 kts 209°
2026-05-04 01:31 -28.97051 152.53059 28038 ft 442 kts 209°
2026-05-04 01:31 -28.99915 152.51766 28363 ft 444 kts 209°
2026-05-04 01:32 -29.02792 152.50463 28671 ft 445 kts 210°
2026-05-04 01:32 -29.05676 152.49157 28959 ft 447 kts 210°
2026-05-04 01:32 -29.08577 152.47843 29262 ft 449 kts 210°
2026-05-04 01:32 -29.11494 152.46521 29516 ft 452 kts 210°
2026-05-04 01:33 -29.14423 152.45193 29820 ft 453 kts 210°
2026-05-04 01:33 -29.17356 152.43869 30103 ft 454 kts 210°
2026-05-04 01:33 -29.20305 152.42540 30324 ft 456 kts 210°
2026-05-04 01:33 -29.23257 152.41206 30532 ft 456 kts 210°
2026-05-04 01:34 -29.26206 152.39867 30714 ft 457 kts 211°
2026-05-04 01:34 -29.29159 152.38516 30930 ft 458 kts 211°
2026-05-04 01:34 -29.32122 152.37158 31167 ft 457 kts 211°
2026-05-04 01:34 -29.35080 152.35807 31382 ft 457 kts 211°
2026-05-04 01:35 -29.38036 152.34466 31734 ft 455 kts 211°
2026-05-04 01:35 -29.40976 152.33138 32087 ft 453 kts 211°
2026-05-04 01:35 -29.43868 152.31830 32414 ft 450 kts 211°
2026-05-04 01:35 -29.46770 152.30512 32717 ft 448 kts 212°
2026-05-04 01:36 -29.49662 152.29193 33013 ft 446 kts 212°
2026-05-04 01:36 -29.52541 152.27880 33338 ft 444 kts 212°
2026-05-04 01:36 -29.55409 152.26569 33688 ft 442 kts 212°
2026-05-04 01:36 -29.58261 152.25265 34022 ft 440 kts 212°
2026-05-04 01:37 -29.61099 152.23967 34147 ft 437 kts 213°
2026-05-04 01:37 -29.66792 152.21357 34163 ft 445 kts 212°
2026-05-04 01:38 -29.72601 152.18694 34160 ft 454 kts 212°
2026-05-04 01:38 -29.78488 152.15994 34163 ft 456 kts 212°
2026-05-04 01:39 -29.84396 152.13288 34157 ft 457 kts 212°
2026-05-04 01:39 -29.90306 152.10571 34158 ft 457 kts 212°
2026-05-04 01:40 -29.96219 152.07855 34160 ft 457 kts 212°
2026-05-04 01:40 -30.02131 152.05136 34169 ft 458 kts 213°
2026-05-04 01:41 -30.08047 152.02406 34171 ft 458 kts 212°
2026-05-04 01:41 -30.12965 152.00134 34166 ft 458 kts 212°
2026-05-04 01:42 -30.18884 151.97399 34165 ft 458 kts 212°
2026-05-04 01:42 -30.24800 151.94659 34166 ft 458 kts 212°
2026-05-04 01:43 -30.30711 151.91918 34156 ft 458 kts 213°
2026-05-04 01:43 -30.36630 151.89167 34149 ft 458 kts 212°
2026-05-04 01:44 -30.42552 151.86418 34151 ft 458 kts 212°
2026-05-04 01:44 -30.48468 151.83663 34167 ft 458 kts 213°
2026-05-04 01:45 -30.54351 151.80920 34153 ft 458 kts 213°
2026-05-04 01:45 -30.63231 151.76777 34139 ft 459 kts 213°
2026-05-04 01:46 -30.69150 151.74012 34165 ft 458 kts 213°
2026-05-04 01:46 -30.75073 151.71244 34155 ft 459 kts 213°
2026-05-04 01:47 -30.80993 151.68457 34152 ft 459 kts 213°
2026-05-04 01:47 -30.86922 151.65666 34151 ft 460 kts 213°
2026-05-04 01:48 -30.92862 151.62880 34176 ft 460 kts 213°
2026-05-04 01:48 -30.98789 151.60087 34163 ft 460 kts 214°
2026-05-04 01:49 -31.04720 151.57294 34154 ft 460 kts 214°
2026-05-04 01:49 -31.10657 151.54499 34152 ft 460 kts 214°
2026-05-04 01:50 -31.16585 151.51701 34159 ft 459 kts 214°
2026-05-04 01:50 -31.22509 151.48899 34151 ft 459 kts 214°
2026-05-04 01:51 -31.28392 151.46111 34142 ft 459 kts 214°
2026-05-04 01:51 -31.34313 151.43298 34163 ft 459 kts 214°
2026-05-04 01:52 -31.40240 151.40489 34145 ft 460 kts 214°
2026-05-04 01:52 -31.46219 151.37794 34134 ft 461 kts 213°
2026-05-04 01:53 -31.52227 151.35166 34125 ft 461 kts 213°
2026-05-04 01:53 -31.58223 151.32506 34132 ft 461 kts 213°
2026-05-04 01:54 -31.64210 151.29820 34108 ft 461 kts 213°
2026-05-04 01:54 -31.70212 151.27117 34098 ft 462 kts 213°
2026-05-04 01:55 -31.76221 151.24415 34099 ft 463 kts 213°
2026-05-04 01:55 -31.82198 151.21727 34106 ft 464 kts 213°
2026-05-04 01:56 -31.88230 151.19004 34083 ft 464 kts 213°
2026-05-04 01:56 -31.94272 151.16285 34099 ft 465 kts 213°
2026-05-04 01:57 -32.00324 151.13567 34122 ft 466 kts 213°
2026-05-04 01:57 -32.06389 151.10851 34097 ft 467 kts 213°
2026-05-04 01:58 -32.12460 151.08133 34073 ft 466 kts 213°
2026-05-04 01:58 -32.15496 151.06770 33861 ft 469 kts 213°
2026-05-04 01:58 -32.18539 151.05396 33525 ft 469 kts 213°
2026-05-04 01:59 -32.21597 151.04010 32953 ft 472 kts 213°
2026-05-04 01:59 -32.24681 151.02613 32313 ft 475 kts 212°
2026-05-04 01:59 -32.27782 151.01212 31733 ft 480 kts 212°
2026-05-04 01:59 -32.30915 150.99795 31117 ft 483 kts 211°
2026-05-04 02:00 -32.34064 150.98369 30518 ft 487 kts 211°
2026-05-04 02:00 -32.37245 150.96930 29868 ft 491 kts 210°
2026-05-04 02:00 -32.40441 150.95486 29257 ft 493 kts 210°
2026-05-04 02:00 -32.43653 150.94040 28654 ft 494 kts 210°
2026-05-04 02:01 -32.46840 150.92638 28058 ft 499 kts 206°
2026-05-04 02:01 -32.50332 150.91804 27458 ft 514 kts 192°
2026-05-04 02:01 -32.53904 150.91934 26855 ft 527 kts 178°
2026-05-04 02:01 -32.57539 150.92570 26248 ft 528 kts 177°
2026-05-04 02:02 -32.61159 150.93224 25654 ft 524 kts 176°
2026-05-04 02:02 -32.64784 150.93884 25055 ft 518 kts 176°
2026-05-04 02:02 -32.68274 150.94517 24465 ft 510 kts 176°
2026-05-04 02:02 -32.71763 150.95143 23876 ft 503 kts 176°
2026-05-04 02:03 -32.75206 150.95756 23222 ft 497 kts 176°
2026-05-04 02:03 -32.78608 150.96356 22689 ft 492 kts 175°
2026-05-04 02:03 -32.81987 150.96948 22131 ft 488 kts 175°
2026-05-04 02:03 -32.85333 150.97541 21579 ft 484 kts 175°
2026-05-04 02:04 -32.88646 150.98131 21031 ft 479 kts 175°
2026-05-04 02:04 -32.91932 150.98715 20494 ft 476 kts 174°
2026-05-04 02:04 -32.95191 150.99299 19937 ft 472 kts 174°
2026-05-04 02:04 -32.98427 150.99880 19391 ft 468 kts 174°
2026-05-04 02:05 -33.01638 151.00456 18862 ft 465 kts 174°
2026-05-04 02:05 -33.04828 151.01025 18324 ft 462 kts 174°
2026-05-04 02:05 -33.07994 151.01591 17751 ft 458 kts 174°
2026-05-04 02:05 -33.11136 151.02151 17237 ft 454 kts 174°
2026-05-04 02:06 -33.14249 151.02708 16721 ft 451 kts 174°
2026-05-04 02:06 -33.17340 151.03258 16216 ft 447 kts 173°
2026-05-04 02:06 -33.20406 151.03805 15713 ft 444 kts 173°
2026-05-04 02:06 -33.23447 151.04346 15214 ft 440 kts 173°
2026-05-04 02:07 -33.26458 151.04899 14713 ft 436 kts 173°
2026-05-04 02:07 -33.29440 151.05470 14220 ft 432 kts 172°
2026-05-04 02:07 -33.32400 151.06044 13709 ft 428 kts 172°
2026-05-04 02:07 -33.35329 151.06616 13195 ft 425 kts 172°
2026-05-04 02:08 -33.38243 151.07183 12703 ft 425 kts 172°
2026-05-04 02:08 -33.41165 151.07747 12203 ft 425 kts 172°
2026-05-04 02:08 -33.44084 151.08305 11690 ft 423 kts 172°
2026-05-04 02:08 -33.46979 151.08859 11184 ft 421 kts 172°
2026-05-04 02:09 -33.49822 151.09405 10680 ft 418 kts 172°
2026-05-04 02:09 -33.52682 151.09958 10187 ft 415 kts 172°
2026-05-04 02:09 -33.55523 151.10504 9976 ft 413 kts 172°
2026-05-04 02:09 -33.58361 151.11051 9479 ft 411 kts 172°
2026-05-04 02:10 -33.61174 151.11592 8953 ft 408 kts 172°
2026-05-04 02:10 -33.63967 151.12133 8716 ft 406 kts 172°
2026-05-04 02:10 -33.66765 151.12686 8529 ft 408 kts 171°
2026-05-04 02:10 -33.69505 151.13578 8313 ft 409 kts 156°
2026-05-04 02:11 -33.71858 151.15459 8108 ft 408 kts 135°
2026-05-04 02:11 -33.73849 151.17872 7892 ft 405 kts 133°
2026-05-04 02:11 -33.75805 151.20303 7712 ft 404 kts 132°
2026-05-04 02:11 -33.77749 151.22734 7518 ft 403 kts 132°
2026-05-04 02:12 -33.79686 151.25161 7313 ft 402 kts 132°
2026-05-04 02:12 -33.81665 151.27531 7095 ft 400 kts 140°
2026-05-04 02:12 -33.84057 151.29213 6901 ft 401 kts 160°
2026-05-04 02:12 -33.86749 151.30057 6695 ft 399 kts 168°
2026-05-04 02:13 -33.89382 151.30749 6417 ft 372 kts 168°
2026-05-04 02:13 -33.91804 151.31371 6185 ft 341 kts 169°
2026-05-04 02:13 -33.94038 151.31944 6055 ft 315 kts 169°
2026-05-04 02:13 -33.96127 151.32482 5764 ft 299 kts 169°
2026-05-04 02:14 -33.98168 151.33009 5668 ft 302 kts 169°
2026-05-04 02:14 -34.00211 151.33542 5449 ft 299 kts 169°
2026-05-04 02:14 -34.02201 151.34061 5207 ft 295 kts 168°
2026-05-04 02:14 -34.04209 151.34587 4962 ft 295 kts 168°
2026-05-04 02:15 -34.06209 151.35109 4703 ft 293 kts 169°
2026-05-04 02:15 -34.08201 151.35629 4459 ft 293 kts 169°
2026-05-04 02:15 -34.10192 151.36150 4210 ft 292 kts 169°
2026-05-04 02:15 -34.12171 151.36670 3960 ft 290 kts 169°
2026-05-04 02:16 -34.14138 151.37189 3718 ft 289 kts 170°
2026-05-04 02:16 -34.16104 151.37637 3486 ft 284 kts 180°
2026-05-04 02:16 -34.18036 151.37375 3366 ft 277 kts 204°
2026-05-04 02:16 -34.19694 151.36304 3240 ft 266 kts 226°
2026-05-04 02:17 -34.20856 151.34639 3117 ft 256 kts 247°
2026-05-04 02:17 -34.21425 151.32654 3007 ft 246 kts 267°
2026-05-04 02:17 -34.21406 151.30644 2878 ft 232 kts 285°
2026-05-04 02:17 -34.20890 151.28871 2758 ft 217 kts 301°
2026-05-04 02:18 -34.20017 151.27456 2633 ft 205 kts 314°
2026-05-04 02:18 -34.19065 151.26221 2587 ft 199 kts 313°
2026-05-04 02:18 -34.18001 151.25142 2598 ft 203 kts 328°
2026-05-04 02:18 -34.16673 151.24524 2602 ft 207 kts 342°
2026-05-04 02:19 -34.15263 151.24117 2607 ft 209 kts 343°
2026-05-04 02:19 -34.13841 151.23745 2607 ft 209 kts 344°
2026-05-04 02:19 -34.12422 151.23375 2601 ft 209 kts 345°
2026-05-04 02:19 -34.10996 151.23004 2603 ft 210 kts 345°
2026-05-04 02:20 -34.09559 151.22630 2488 ft 210 kts 345°
2026-05-04 02:20 -34.08166 151.22268 2260 ft 199 kts 345°
2026-05-04 02:20 -34.06823 151.21917 2014 ft 197 kts 345°
2026-05-04 02:20 -34.05521 151.21580 1757 ft 189 kts 346°
2026-05-04 02:21 -34.04302 151.21262 1557 ft 169 kts 347°
2026-05-04 02:21 -34.03220 151.20981 1335 ft 150 kts 346°
2026-05-04 02:21 -34.02236 151.20724 1133 ft 141 kts 349°
2026-05-04 02:21 -34.01298 151.20480 941 ft 138 kts 348°
2026-05-04 02:22 -34.00369 151.20238 749 ft 135 kts 348°
2026-05-04 02:22 -33.99443 151.19998 581 ft 137 kts 349°
2026-05-04 02:22 -33.98516 151.19770 372 ft 138 kts 349°
2026-05-04 02:22 -33.97590 151.19511 166 ft 135 kts 346°
2026-05-04 02:23 -33.96681 151.19276 28 ft 126 kts 348°
2026-05-04 02:23 -33.96009 151.19099 28 ft 59 kts 348°
2026-05-04 02:23 -33.95721 151.19023 28 ft 33 kts 348°
2026-05-04 02:23 -33.95484 151.18961 25 ft 36 kts 345°
2026-05-04 02:24 -33.95279 151.18832 26 ft 21 kts 324°
2026-05-04 02:24 -33.95171 151.18722 29 ft 20 kts 317°
2026-05-04 02:24 -33.95088 151.18591 30 ft 20 kts 274°
2026-05-04 02:24 -33.95116 151.18421 30 ft 22 kts 257°
2026-05-04 02:25 -33.95148 151.18247 30 ft 21 kts 258°
2026-05-04 02:25 -33.95180 151.18066 30 ft 23 kts 258°
2026-05-04 02:25 -33.95129 151.17951 30 ft 18 kts 345°
2026-05-04 02:25 -33.95005 151.17918 30 ft 19 kts 347°
2026-05-04 02:26 -33.94869 151.17883 30 ft 21 kts 348°
2026-05-04 02:26 -33.94725 151.17846 30 ft 22 kts 348°
2026-05-04 02:26 -33.94574 151.17807 30 ft 23 kts 349°
2026-05-04 02:26 -33.94417 151.17762 30 ft 24 kts 346°
2026-05-04 02:27 -33.94256 151.17710 29 ft 24 kts 346°
2026-05-04 02:27 -33.94151 151.17679 29 ft 22 kts 346°
2026-05-04 02:27 -33.94031 151.17814 29 ft 21 kts 73°
2026-05-04 02:27 -33.93989 151.17992 28 ft 23 kts 75°
2026-05-04 02:28 -33.93944 151.18177 29 ft 24 kts 73°
2026-05-04 02:28 -33.93897 151.18377 29 ft 26 kts 75°
2026-05-04 02:28 -33.93839 151.18620 27 ft 34 kts 74°
2026-05-04 02:28 -33.93778 151.18883 26 ft 14 kts 75°
2026-05-04 02:29 -33.93737 151.18945 25 ft 13 kts 29°
2026-05-04 02:29 -33.93637 151.18942 29 ft 17 kts 359°
2026-05-04 02:29 -33.93577 151.19007 30 ft 10 kts 75°
2026-05-04 02:29 -33.93562 151.19062 30 ft 8 kts 49°
2026-05-04 02:30 -33.93505 151.19048 30 ft 11 kts 344°
2026-05-04 02:30 -33.93490 151.19024 30 ft 2 kts 164°
2026-05-04 02:30 -33.93507 151.19032 30 ft 0 kts 163°
2026-05-04 02:31 -33.93513 151.19034 30 ft 0 kts 164°